Regional Weather Roundup
Issued by NWS

Home | Current Version | Previous Version | Text Only | Print | Product List | Glossary On
Versions: 1 2 3 4 5 6 7 8 9 10 11 12 13 14 15 16 17 18 19 20 21 22 23 24 25 26 27
000
ASUS45 KCYS 011210
RWRWY

WYOMING REGIONAL WEATHER ROUNDUP
NATIONAL WEATHER SERVICE CHEYENNE WY
600 AM MDT SAT OCT 01 2016

NOTE:  "FAIR" INDICATES FEW OR NO CLOUDS BELOW 12,000 FEET
WITH NO SIGNIFICANT WEATHER AND/OR OBSTRUCTIONS TO VISIBILITY.

WYZ001-011300-
YELLOWSTONE NATIONAL PARK

CITY           SKY/WX    TMP DP  RH WIND       PRES   REMARKS
LK YELLOWSTONE   N/A     31  31 100 CALM      30.25F
6HR MIN TEMP:  31; 6HR MAX TEMP:  35;

W YELLOWSTONE  NOT AVBL

$$
WYZ002>013-054>058-071-098>099-011300-
NORTHERN WYOMING

CITY           SKY/WX    TMP DP  RH WIND       PRES   REMARKS
JACKSON        FAIR      34  32  93 CALM      30.21S
CODY           FAIR      55  41  58 SW5       30.09S
GREYBULL       FAIR      50  47  89 SE3       30.03F
6HR MIN TEMP:  50; 6HR MAX TEMP:  60;

WORLAND        FAIR      48  44  86 S7        30.05S
6HR MIN TEMP:  45; 6HR MAX TEMP:  54;

SHERIDAN       FAIR      50  43  77 CALM      30.03S
6HR MIN TEMP:  47; 6HR MAX TEMP:  53;

BUFFALO        FAIR      55  39  54 SW8       30.09S
6HR MIN TEMP:  54; 6HR MAX TEMP:  61;

GILLETTE       FAIR      47  45  93 CALM      30.05S
6HR MIN TEMP:  45; 6HR MAX TEMP:  54;

HULETT         FAIR      52  45  76 S5        30.07S
NEWCASTLE      FAIR      50  43  76 N8        30.06S

$$
WYZ014>020-022>026-101>103-011300-
CENTRAL WYOMING

CITY           SKY/WX    TMP DP  RH WIND       PRES   REMARKS
BIG PINEY      FAIR      35  32  88 E3        30.24S
6HR MIN TEMP:  33; 6HR MAX TEMP:  43;

PINEDALE       FAIR      32  32 100 NW6       30.25S WCI  26
DUBOIS         FAIR      39  34  81 NW8       30.22R WCI  34
LANDER         FAIR      48  40  73 NW3       30.12S
6HR MIN TEMP:  47; 6HR MAX TEMP:  59;

RIVERTON       FAIR      47  42  83 NW8       30.12S
6HR MIN TEMP:  47; 6HR MAX TEMP:  57;

CASPER         FAIR      47  41  80 SW8       30.12S
6HR MIN TEMP:  41; 6HR MAX TEMP:  52;

DOUGLAS        FAIR      41  39  93 CALM      30.12R
6HR MIN TEMP:  41; 6HR MAX TEMP:  50;


$$
WYZ021-027>030-104>119-011300-
SOUTHERN WYOMING

CITY           SKY/WX    TMP DP  RH WIND       PRES   REMARKS
EVANSTON       FAIR      46  37  71 SE7       30.21F
6HR MIN TEMP:  46; 6HR MAX TEMP:  54;

FORT BRIDGER   PTSUNNY   48  39  72 E3        30.24F
ROCK SPRINGS   FAIR      47  40  76 SE9       30.21F
6HR MIN TEMP:  47; 6HR MAX TEMP:  54;

DIXON          FAIR      41  38  89 E3        30.28R
RAWLINS        FAIR      41  37  86 CALM      30.23S
6HR MIN TEMP:  40; 6HR MAX TEMP:  54;

SARATOGA       FAIR      37  37 100 W3        30.26S
LARAMIE        FAIR      38  36  92 S5        30.24S WCI  34
6HR MIN TEMP:  38; 6HR MAX TEMP:  47;

CHEYENNE       FAIR      50  40  68 W10       30.17S
6HR MIN TEMP:  46; 6HR MAX TEMP:  52;

TORRINGTON     FAIR      46  43  89 NW5       30.07S
6HR MIN TEMP:  45; 6HR MAX TEMP:  54;

PINE BLUFFS    FAIR      39  37  93 SW3       30.14S

$$




USA.gov is the U.S. government's official web portal to all federal, state and local government web resources and services.